SCP
0 0 0 0 0 0 0 0 0 0 0 0 0 0 0 0 0 0 0 0 0 0 0 0 0 0 0 0 0 0 0 0 0 0 0 0 0 0 0 0 0 0 0 0
0 0 0 0 0 0 0 0 0 0 0 0 0 0 0 0 0 0 0 0 0 0 0 0 0 0 0 0 0 0 0 0 0 0 0 0 0 0 0 0 0 0 0 0
0 0 0 0 0 0 0 0 0 0 0 0 0 0 0 0 0 0 0 0 0 0 0 0 0 0 0 0 0 0 0 0 0 0 0 0 0 0 0 0 0 0 0 0
0 0 0 0 0 0 0 0 0 0 0 0 0 0 0 0 0 0 0 0 0 0 0 0 0 0 0 0 0 0 0 0 0 0 0 0 0 0 0 0 0 0 0 0
0 0 0 0 0 0 0 0 0 0 0 0 0 0 0 0 0 0 0 0 0 0 0 0 0 0 0 0 0 0 0 0 0 0 0 0 0 0 0 0 0 0 0 0
0 0 0 0 0 0 0 0 0 0 0 0 0 0 0 0 0 0 0 0 0 0 0 0 0 0 0 0 0 0 0 0 0 0 0 0 0 0 0 0 0 0 0 0
0 0 0 0 0 0 0 0 0 0 0 0 0 0 0 0 0 0 0 0 0 0 0 0 0 0 0 0 0 0 0 0 0 0 0 0 0 0 0 0 0 0 0 0
0 0 0 0 0 0 0 0 0 0 0 0 0 0 0 0 0 0 0 0 0 0 0 0 0 0 0 0 0 0 0 0 0 0 0 0 0 0 0 0 0 0 0 0
0 0 0 0 0 0 0 0 0 0 0 0 0 0 0 0 0 0 0 0 0 0 0 0 0 0 0 0 0 0 0 0 0 0 0 0 0 0 0 0 0 0 0 0
0 0 0 0 0 0 0 0 0 0 0 0 0 0 0 0 0 0 0 0 0 0 0 0 0 0 0 0 0 0 0 0 0 0 0 0 0 0 0 0 -0 -0 0 0
0 0 0 0 0 0 0 0 0 0 0 0 0 0 0 0 0 0 0 0 0 0 0 0 0 0 0 0 0 0 0 0 0 0 0 0 0 0 0 -0 -0 0 -0 -0
0 0 0 0 0 0 0 0 0 0 0 0 0 0 0 0 0 0 0 0 0 0 0 0 0 0 0 0 0 0 0 0 0 0 0 0 0 0 0 0 0 0 0 0
0 0 0 0 0 0 0 0 0 0 0 0 0 0 0 0 0 0 0 0 0 0 0 0 0 0 0 0 0 0 0 0 0 0 0 0 0 0 0 0 0 0 0 0
0 0 0 0 0 0 0 0 0 0 0 0 0 0 0 0 0 0 0 0 0 0 0 0 0 0 0 0 0 0 0 0 0 0 0 0 0 0 0 0 0 0 0 0
0 0 0 0 0 0 0 0 0 0 0 0 0 0 0 0 0 0 0 0 0 0 0 0 0 0 0 0 0 0 0 0 0 0 0 0 0 0 0 0 0 0 0 0
0 0 0 0 0 0 0 0 0 0 0 0 0 0 0 0 0 0 0 0 0 0 0 0 0 0 0 0 0 0 0 0 0 0 0 0 0 0 0 0 0 0 0 0
0 0 0 0 0 0 0 0 0 0 0 0 0 0 0 0 0 0 0 0 0 0 0 0 0 0 0 0 0 0 0 0 0 0 0 0 0 0 0 0 0 0 0 0
0 0 0 0 0 0 0 0 0 0 0 0 0 0 0 0 0 0 0 0 0 0 0 0 0 0 0 0 0 0 0 0 0 0 0 0 0 0 0 0 0 0 0 0
0 0 0 0 0 0 0 0 0 0 0 0 0 0 0 0 0 0 0 0 0 0 0 0 0 0 0 0 0 0 0 0 0 0 0 0 0 0 0 0 0 0 0 0
0 0 0 0 0 0 0 0 0 0 0 0 0 0 0 0 0 0 0 0 0 0 0 0 0 0 0 0 0 0 0 0 0 0 0 0 0 0 0 0 0 0 0 0
0 0 0 0 0 0 0 0 0 0 0 0 0 0 0 0 0 0 0 0 0 0 0 0 0 0 0 0 0 0 0 0 0 0 0 0 0 0 0 0 0 0 0 0
0 0 0 0 0 0 0 0 0 0 0 0 0 0 0 0 0 0 0 0 0 0 0 0 0 0 0 0 0 0 0 0 0 0 0 0 0 0 0 0 0 0 0 0
-0 0 0 0 0 0 0 0 0 0 0 0 0 0 0 0 0 0 0 0 0 0 0 0 0 0 0 0 0 0 0 0 0 0 0 0 0 0 0 0 0 0 0 0
-0 0 0 0 0 0 0 0 0 0 0 0 0 0 0 0 0 0 0 0 0 0 0 0 0 0 0 0 0 0 0 0 0 0 0 0 0 0 0 0 0 0 0 0
0 0 -0 0 0 0 0 0 0 0 0 0 0 0 0 0 0 0 0 0 0 0 0 0 0 0 0 0 0 0 0 0 0 0 0 0 0 0 0 0 0 0 0 0
0 0 0 0 0 0 0 0 0 0 0 0 0 0 0 0 0 0 0 0 0 0 0 0 0 0 0 0 0 0 0 0 0 0 0 0 0 0 0 0 0 0 0 0
0 0 0 0 0 0 0 0 0 0 0 0 0 0 0 0 0 0 0 0 0 0 0 0 0 0 0 0 0 0 0 0 0 0 0 0 0 0 0 0 0 0 0 0
Wind_Speed_500mb
11 8 6 8 13 26 35 41 14 44 35 51 14 18 33 35 33 36 42 48 50 49 47 42 41 40 39 36 35 33 32 30 29 28 25 22 19 15 11 7 3 2 5 10
8 6 6 4 20 26 31 36 26 39 35 60 7 26 40 45 50 51 56 59 56 53 53 51 49 46 43 40 35 33 34 31 29 26 24 20 15 10 5 1 5 9 12 14
4 14 9 13 42 19 18 23 20 31 55 44 27 17 33 47 57 62 63 63 62 65 61 57 56 51 46 44 40 40 34 31 28 23 18 14 10 6 2 3 7 12 16 20
5 10 8 14 16 22 34 34 33 37 44 53 49 32 37 63 70 67 65 63 67 72 70 65 60 57 52 47 45 39 35 31 27 22 17 12 7 3 5 9 15 20 24 29
7 10 15 33 8 13 16 32 22 37 46 64 64 47 73 72 61 71 79 79 79 78 76 70 67 56 51 50 46 40 34 29 24 19 13 8 3 5 12 18 23 28 34 37
7 8 16 5 3 10 10 23 7 23 17 23 32 11 34 40 52 64 67 64 69 74 75 71 63 58 57 52 44 37 31 26 20 13 6 5 11 19 27 32 34 34 36 40
18 10 16 8 9 8 13 8 4 20 23 30 6 20 61 52 44 49 62 65 69 72 72 66 62 61 56 48 41 35 28 19 11 8 11 15 19 22 25 29 33 36 38 40
11 8 24 14 3 18 7 12 12 12 19 31 34 39 35 20 25 42 58 65 70 72 67 65 62 58 54 47 38 29 19 13 9 9 15 20 21 21 26 31 36 38 41 43
18 14 4 24 4 4 8 12 13 13 16 26 30 34 26 13 23 39 53 60 61 62 65 62 58 50 48 40 32 23 13 7 5 7 13 13 16 20 25 32 37 42 47 51
5 10 9 11 11 15 24 31 24 18 17 26 29 13 17 20 27 37 43 46 48 57 61 62 56 47 39 31 23 15 8 3 13 12 9 12 18 23 29 34 39 45 50 55
8 8 16 10 5 14 22 27 34 36 26 24 28 25 17 15 30 35 36 42 51 56 59 57 48 35 30 25 18 13 21 15 9 9 10 15 21 26 30 34 38 43 47 51
7 5 6 4 12 23 25 27 29 35 42 39 40 35 28 24 26 33 44 56 58 57 50 39 38 37 29 24 28 20 17 17 10 8 14 19 22 23 26 29 33 39 43 47
6 2 14 26 34 37 26 23 31 33 34 37 40 44 45 40 37 44 61 70 66 49 41 39 30 24 29 28 28 28 20 14 12 14 17 20 22 26 27 25 29 32 38 43
27 28 23 32 19 16 23 35 43 43 39 37 37 44 47 47 47 55 69 72 61 54 48 38 38 43 41 34 29 24 19 17 16 18 20 23 26 29 33 35 36 34 35 41
27 34 41 41 47 58 60 60 55 48 44 43 43 48 50 50 56 65 69 69 62 56 50 48 44 40 34 30 26 23 19 20 20 21 22 23 27 31 35 37 36 35 35 35
44 48 55 60 60 55 52 50 52 51 49 48 49 52 51 52 63 70 70 67 62 55 49 41 35 34 35 32 27 25 25 24 22 22 23 23 27 32 34 36 36 37 38 42
48 55 57 63 59 56 56 55 51 49 47 50 53 54 56 60 70 72 70 63 55 42 43 44 44 39 34 33 33 30 26 22 22 24 25 24 25 28 30 32 34 33 33 36
67 71 69 67 66 62 57 55 52 49 49 46 50 55 59 67 76 76 71 64 56 51 45 42 40 39 38 35 31 28 25 23 23 24 25 23 22 25 28 30 32 34 35 33
51 58 63 67 66 65 64 65 63 57 53 52 53 60 64 72 71 63 58 53 48 41 43 45 47 42 37 33 31 28 26 26 25 24 22 21 21 24 28 31 33 34 36 37
41 41 46 55 60 66 75 76 72 65 58 56 57 63 70 74 70 66 61 52 49 42 43 48 44 40 38 36 35 30 29 28 26 24 22 22 24 26 29 32 34 36 36 37
42 41 39 43 51 55 60 62 64 66 60 59 61 69 75 76 76 72 69 67 59 46 49 49 46 42 42 41 35 31 29 28 26 25 25 25 27 29 32 35 36 38 39 41
31 35 40 43 44 44 47 48 49 50 52 53 57 68 74 78 76 73 66 57 48 52 56 52 48 48 43 35 34 33 32 30 27 26 26 28 30 32 35 38 39 40 42 42
38 35 35 39 42 45 41 40 44 46 48 50 57 62 72 76 75 73 73 59 57 58 54 50 47 44 40 39 38 34 32 30 29 29 30 31 33 37 40 41 42 44 44 43
41 42 38 37 36 39 40 38 39 41 44 46 52 58 63 72 73 69 63 55 54 52 49 48 48 45 41 39 35 34 33 32 31 32 33 35 37 41 44 45 45 42 44 45
42 42 42 37 36 32 30 30 34 37 39 44 51 57 62 65 63 61 57 51 49 49 49 46 44 41 38 36 35 34 33 33 34 37 37 39 41 45 45 45 45 45 48 51
32 32 32 31 30 28 24 25 28 30 34 43 49 53 54 54 52 49 49 46 42 41 41 40 38 37 35 34 33 33 34 35 38 40 42 43 45 47 46 45 47 50 54 59
27 25 25 24 21 20 20 20 23 28 32 37 40 43 44 42 41 41 41 40 38 36 35 35 36 35 33 33 33 35 37 39 41 44 44 46 47 47 47 49 54 58 62 64
Wind_Direction_500mb
255 336 83 167 180 201 215 229 191 244 249 263 233 207 206 209 200 212 217 219 219 211 208 201 197 192 188 186 184 181 177 169 165 162 161 159 156 151 147 147 156 272 305 314
40 92 313 296 235 213 223 238 243 260 268 262 271 274 198 202 206 213 223 225 217 212 211 205 200 197 192 191 186 181 177 169 164 162 160 159 154 148 139 349 330 322 323 327
228 145 89 308 243 192 226 237 222 238 247 271 272 245 212 214 219 226 233 228 216 216 213 207 202 201 195 192 188 183 174 169 166 163 161 156 150 144 120 355 340 329 333 331
163 74 192 244 144 207 229 238 237 257 264 262 268 273 268 254 237 236 237 231 226 223 215 210 206 202 196 189 182 181 175 172 169 167 164 155 142 104 10 343 333 333 334 328
151 187 310 293 203 176 171 249 242 240 257 269 278 287 265 261 260 255 252 247 234 224 217 207 206 200 192 186 184 180 177 173 169 164 158 146 114 359 341 337 333 333 333 322
156 192 213 282 342 349 122 254 357 37 28 0 350 259 277 289 272 251 244 235 225 221 215 207 199 195 190 186 182 178 172 167 158 146 120 32 358 347 339 332 326 321 327 327
210 238 277 189 251 114 140 225 92 43 22 357 5 304 304 305 274 240 232 221 214 210 207 198 192 188 184 182 177 169 160 148 123 65 13 352 343 326 315 319 327 328 329 330
201 225 257 168 126 165 171 125 93 50 29 22 355 340 331 301 236 213 206 198 205 204 197 188 185 183 179 174 164 153 141 119 82 17 341 314 300 315 323 328 328 328 331 334
187 209 149 173 101 312 251 264 228 261 291 315 337 350 327 281 207 193 195 197 198 197 184 178 175 173 171 163 148 136 124 117 42 309 274 297 317 325 329 330 330 331 333 334
93 234 199 230 269 273 277 265 278 273 279 293 299 311 331 270 233 218 210 201 194 186 177 171 167 159 155 152 152 155 129 134 231 241 285 315 323 327 328 327 329 332 332 330
267 276 288 306 356 323 294 283 269 279 282 281 282 266 255 257 244 232 220 203 186 180 172 163 161 167 172 173 164 158 199 199 235 260 303 319 319 321 328 330 328 330 330 331
213 152 132 87 9 349 336 322 304 288 282 272 258 255 245 230 223 219 204 188 178 172 168 172 177 182 170 159 187 186 217 215 224 268 291 303 314 322 322 325 333 336 335 333
163 272 306 299 302 301 307 308 307 302 293 276 263 251 241 231 216 204 188 184 181 178 185 184 168 160 179 187 206 209 205 213 238 267 291 302 310 319 324 332 337 337 335 334
251 274 289 283 269 273 294 304 309 302 288 277 263 250 244 233 217 200 192 187 187 196 197 188 180 192 201 200 199 206 216 234 255 276 293 307 315 321 324 328 336 342 337 334
263 272 275 272 275 283 288 289 287 280 277 266 254 245 238 228 213 200 193 192 201 203 197 192 194 198 200 203 209 220 237 254 270 287 296 307 319 326 328 329 336 339 335 333
259 261 264 268 274 275 273 273 273 273 268 259 248 239 232 224 209 199 198 201 201 198 197 195 201 209 210 213 221 235 248 260 275 288 301 318 325 325 325 326 331 336 338 336
246 250 255 260 264 273 280 281 279 276 272 260 249 238 228 216 203 200 199 196 194 201 211 214 211 212 216 221 228 238 249 265 286 299 305 311 317 320 321 324 326 330 334 334
261 264 267 268 274 275 277 281 281 276 276 270 250 237 224 212 205 203 202 200 203 205 206 212 217 220 222 227 237 249 261 274 283 288 292 301 309 313 315 317 322 324 326 329
254 260 264 268 273 276 279 281 280 281 276 263 248 235 224 215 210 208 206 208 207 211 220 223 223 223 229 237 249 257 261 266 272 276 280 286 297 306 311 314 315 317 319 320
279 279 279 278 276 274 274 273 275 275 275 265 246 231 221 215 210 209 208 213 222 223 229 232 228 230 235 243 248 250 257 261 262 268 278 288 297 303 307 309 310 309 311 314
299 299 299 293 287 282 277 273 271 268 267 260 246 233 223 217 212 211 209 214 216 217 232 232 231 234 239 243 246 251 254 256 260 269 280 290 297 299 301 301 303 307 309 311
324 315 305 294 287 287 281 273 267 260 255 247 234 226 222 217 214 213 215 217 226 234 232 232 233 236 240 245 250 252 253 257 265 274 281 286 290 294 298 301 303 303 304 306
323 318 306 299 295 288 278 268 261 253 248 243 231 226 221 220 217 215 215 220 231 229 231 233 236 240 241 245 247 249 253 258 265 272 279 286 292 296 297 299 299 300 302 304
315 311 309 299 293 289 281 274 265 256 249 239 229 225 223 218 215 217 221 223 223 226 230 233 235 238 242 244 245 246 251 258 267 276 282 287 292 293 295 297 297 299 300 301
309 309 307 304 296 293 285 274 262 250 237 226 220 214 213 213 217 218 219 220 222 227 230 231 233 237 239 240 242 248 257 266 274 280 285 288 291 291 292 294 295 296 298 301
313 306 299 293 290 289 282 266 250 238 221 210 204 204 207 210 211 214 218 222 225 225 228 231 234 235 238 244 251 259 267 273 279 282 285 288 289 289 290 290 293 296 298 300
309 306 300 293 284 275 262 250 236 229 217 212 213 208 207 208 211 215 218 219 220 222 225 229 232 237 245 252 260 266 271 275 279 282 284 286 286 287 290 293 294 296 298 299
Wind_Speed_850mb
11 8 6 8 13 26 35 41 14 44 35 51 14 18 33 35 33 36 42 48 50 49 47 42 41 40 39 36 35 33 32 30 29 28 25 22 19 15 11 7 3 2 5 10
8 6 6 4 20 26 31 36 26 39 35 60 7 26 40 45 50 51 56 59 56 53 53 51 49 46 43 40 35 33 34 31 29 26 24 20 15 10 5 1 5 9 12 14
4 14 9 13 42 19 18 23 20 31 55 44 27 17 33 47 57 62 63 63 62 65 61 57 56 51 46 44 40 40 34 31 28 23 18 14 10 6 2 3 7 12 16 20
5 10 8 14 16 22 34 34 33 37 44 53 49 32 37 63 70 67 65 63 67 72 70 65 60 57 52 47 45 39 35 31 27 22 17 12 7 3 5 9 15 20 24 29
7 10 15 33 8 13 16 32 22 37 46 64 64 47 73 72 61 71 79 79 79 78 76 70 67 56 51 50 46 40 34 29 24 19 13 8 3 5 12 18 23 28 34 37
7 8 16 5 3 10 10 23 7 23 17 23 32 11 34 40 52 64 67 64 69 74 75 71 63 58 57 52 44 37 31 26 20 13 6 5 11 19 27 32 34 34 36 40
18 10 16 8 9 8 13 8 4 20 23 30 6 20 61 52 44 49 62 65 69 72 72 66 62 61 56 48 41 35 28 19 11 8 11 15 19 22 25 29 33 36 38 40
11 8 24 14 3 18 7 12 12 12 19 31 34 39 35 20 25 42 58 65 70 72 67 65 62 58 54 47 38 29 19 13 9 9 15 20 21 21 26 31 36 38 41 43
18 14 4 24 4 4 8 12 13 13 16 26 30 34 26 13 23 39 53 60 61 62 65 62 58 50 48 40 32 23 13 7 5 7 13 13 16 20 25 32 37 42 47 51
5 10 9 11 11 15 24 31 24 18 17 26 29 13 17 20 27 37 43 46 48 57 61 62 56 47 39 31 23 15 8 3 13 12 9 12 18 23 29 34 39 45 50 55
8 8 16 10 5 14 22 27 34 36 26 24 28 25 17 15 30 35 36 42 51 56 59 57 48 35 30 25 18 13 21 15 9 9 10 15 21 26 30 34 38 43 47 51
7 5 6 4 12 23 25 27 29 35 42 39 40 35 28 24 26 33 44 56 58 57 50 39 38 37 29 24 28 20 17 17 10 8 14 19 22 23 26 29 33 39 43 47
6 2 14 26 34 37 26 23 31 33 34 37 40 44 45 40 37 44 61 70 66 49 41 39 30 24 29 28 28 28 20 14 12 14 17 20 22 26 27 25 29 32 38 43
27 28 23 32 19 16 23 35 43 43 39 37 37 44 47 47 47 55 69 72 61 54 48 38 38 43 41 34 29 24 19 17 16 18 20 23 26 29 33 35 36 34 35 41
27 34 41 41 47 58 60 60 55 48 44 43 43 48 50 50 56 65 69 69 62 56 50 48 44 40 34 30 26 23 19 20 20 21 22 23 27 31 35 37 36 35 35 35
44 48 55 60 60 55 52 50 52 51 49 48 49 52 51 52 63 70 70 67 62 55 49 41 35 34 35 32 27 25 25 24 22 22 23 23 27 32 34 36 36 37 38 42
48 55 57 63 59 56 56 55 51 49 47 50 53 54 56 60 70 72 70 63 55 42 43 44 44 39 34 33 33 30 26 22 22 24 25 24 25 28 30 32 34 33 33 36
67 71 69 67 66 62 57 55 52 49 49 46 50 55 59 67 76 76 71 64 56 51 45 42 40 39 38 35 31 28 25 23 23 24 25 23 22 25 28 30 32 34 35 33
51 58 63 67 66 65 64 65 63 57 53 52 53 60 64 72 71 63 58 53 48 41 43 45 47 42 37 33 31 28 26 26 25 24 22 21 21 24 28 31 33 34 36 37
41 41 46 55 60 66 75 76 72 65 58 56 57 63 70 74 70 66 61 52 49 42 43 48 44 40 38 36 35 30 29 28 26 24 22 22 24 26 29 32 34 36 36 37
42 41 39 43 51 55 60 62 64 66 60 59 61 69 75 76 76 72 69 67 59 46 49 49 46 42 42 41 35 31 29 28 26 25 25 25 27 29 32 35 36 38 39 41
31 35 40 43 44 44 47 48 49 50 52 53 57 68 74 78 76 73 66 57 48 52 56 52 48 48 43 35 34 33 32 30 27 26 26 28 30 32 35 38 39 40 42 42
38 35 35 39 42 45 41 40 44 46 48 50 57 62 72 76 75 73 73 59 57 58 54 50 47 44 40 39 38 34 32 30 29 29 30 31 33 37 40 41 42 44 44 43
41 42 38 37 36 39 40 38 39 41 44 46 52 58 63 72 73 69 63 55 54 52 49 48 48 45 41 39 35 34 33 32 31 32 33 35 37 41 44 45 45 42 44 45
42 42 42 37 36 32 30 30 34 37 39 44 51 57 62 65 63 61 57 51 49 49 49 46 44 41 38 36 35 34 33 33 34 37 37 39 41 45 45 45 45 45 48 51
32 32 32 31 30 28 24 25 28 30 34 43 49 53 54 54 52 49 49 46 42 41 41 40 38 37 35 34 33 33 34 35 38 40 42 43 45 47 46 45 47 50 54 59
27 25 25 24 21 20 20 20 23 28 32 37 40 43 44 42 41 41 41 40 38 36 35 35 36 35 33 33 33 35 37 39 41 44 44 46 47 47 47 49 54 58 62 64
Wind_Direction_850mb
255 336 83 167 180 201 215 229 191 244 249 263 233 207 206 209 200 212 217 219 219 211 208 201 197 192 188 186 184 181 177 169 165 162 161 159 156 151 147 147 156 272 305 314
40 92 313 296 235 213 223 238 243 260 268 262 271 274 198 202 206 213 223 225 217 212 211 205 200 197 192 191 186 181 177 169 164 162 160 159 154 148 139 349 330 322 323 327
228 145 89 308 243 192 226 237 222 238 247 271 272 245 212 214 219 226 233 228 216 216 213 207 202 201 195 192 188 183 174 169 166 163 161 156 150 144 120 355 340 329 333 331
163 74 192 244 144 207 229 238 237 257 264 262 268 273 268 254 237 236 237 231 226 223 215 210 206 202 196 189 182 181 175 172 169 167 164 155 142 104 10 343 333 333 334 328
151 187 310 293 203 176 171 249 242 240 257 269 278 287 265 261 260 255 252 247 234 224 217 207 206 200 192 186 184 180 177 173 169 164 158 146 114 359 341 337 333 333 333 322
156 192 213 282 342 349 122 254 357 37 28 0 350 259 277 289 272 251 244 235 225 221 215 207 199 195 190 186 182 178 172 167 158 146 120 32 358 347 339 332 326 321 327 327
210 238 277 189 251 114 140 225 92 43 22 357 5 304 304 305 274 240 232 221 214 210 207 198 192 188 184 182 177 169 160 148 123 65 13 352 343 326 315 319 327 328 329 330
201 225 257 168 126 165 171 125 93 50 29 22 355 340 331 301 236 213 206 198 205 204 197 188 185 183 179 174 164 153 141 119 82 17 341 314 300 315 323 328 328 328 331 334
187 209 149 173 101 312 251 264 228 261 291 315 337 350 327 281 207 193 195 197 198 197 184 178 175 173 171 163 148 136 124 117 42 309 274 297 317 325 329 330 330 331 333 334
93 234 199 230 269 273 277 265 278 273 279 293 299 311 331 270 233 218 210 201 194 186 177 171 167 159 155 152 152 155 129 134 231 241 285 315 323 327 328 327 329 332 332 330
267 276 288 306 356 323 294 283 269 279 282 281 282 266 255 257 244 232 220 203 186 180 172 163 161 167 172 173 164 158 199 199 235 260 303 319 319 321 328 330 328 330 330 331
213 152 132 87 9 349 336 322 304 288 282 272 258 255 245 230 223 219 204 188 178 172 168 172 177 182 170 159 187 186 217 215 224 268 291 303 314 322 322 325 333 336 335 333
163 272 306 299 302 301 307 308 307 302 293 276 263 251 241 231 216 204 188 184 181 178 185 184 168 160 179 187 206 209 205 213 238 267 291 302 310 319 324 332 337 337 335 334
251 274 289 283 269 273 294 304 309 302 288 277 263 250 244 233 217 200 192 187 187 196 197 188 180 192 201 200 199 206 216 234 255 276 293 307 315 321 324 328 336 342 337 334
263 272 275 272 275 283 288 289 287 280 277 266 254 245 238 228 213 200 193 192 201 203 197 192 194 198 200 203 209 220 237 254 270 287 296 307 319 326 328 329 336 339 335 333
259 261 264 268 274 275 273 273 273 273 268 259 248 239 232 224 209 199 198 201 201 198 197 195 201 209 210 213 221 235 248 260 275 288 301 318 325 325 325 326 331 336 338 336
246 250 255 260 264 273 280 281 279 276 272 260 249 238 228 216 203 200 199 196 194 201 211 214 211 212 216 221 228 238 249 265 286 299 305 311 317 320 321 324 326 330 334 334
261 264 267 268 274 275 277 281 281 276 276 270 250 237 224 212 205 203 202 200 203 205 206 212 217 220 222 227 237 249 261 274 283 288 292 301 309 313 315 317 322 324 326 329
254 260 264 268 273 276 279 281 280 281 276 263 248 235 224 215 210 208 206 208 207 211 220 223 223 223 229 237 249 257 261 266 272 276 280 286 297 306 311 314 315 317 319 320
279 279 279 278 276 274 274 273 275 275 275 265 246 231 221 215 210 209 208 213 222 223 229 232 228 230 235 243 248 250 257 261 262 268 278 288 297 303 307 309 310 309 311 314
299 299 299 293 287 282 277 273 271 268 267 260 246 233 223 217 212 211 209 214 216 217 232 232 231 234 239 243 246 251 254 256 260 269 280 290 297 299 301 301 303 307 309 311
324 315 305 294 287 287 281 273 267 260 255 247 234 226 222 217 214 213 215 217 226 234 232 232 233 236 240 245 250 252 253 257 265 274 281 286 290 294 298 301 303 303 304 306
323 318 306 299 295 288 278 268 261 253 248 243 231 226 221 220 217 215 215 220 231 229 231 233 236 240 241 245 247 249 253 258 265 272 279 286 292 296 297 299 299 300 302 304
315 311 309 299 293 289 281 274 265 256 249 239 229 225 223 218 215 217 221 223 223 226 230 233 235 238 242 244 245 246 251 258 267 276 282 287 292 293 295 297 297 299 300 301
309 309 307 304 296 293 285 274 262 250 237 226 220 214 213 213 217 218 219 220 222 227 230 231 233 237 239 240 242 248 257 266 274 280 285 288 291 291 292 294 295 296 298 301
313 306 299 293 290 289 282 266 250 238 221 210 204 204 207 210 211 214 218 222 225 225 228 231 234 235 238 244 251 259 267 273 279 282 285 288 289 289 290 290 293 296 298 300
309 306 300 293 284 275 262 250 236 229 217 212 213 208 207 208 211 215 218 219 220 222 225 229 232 237 245 252 260 266 271 275 279 282 284 286 286 287 290 293 294 296 298 299